Showing default

NETSAT-2, 46507

Orbit data source: Space-Track

NETSAT-2, 46507 is a payload satellite owned by ZfT (DE) in SSO that was launched on Mon, 28 Sep 2020 UTC via a SOYUZ-2-1B launch vehicle from the Plesetsk Missile And Space Complex (PKMTR). Payload-class satellites include a variety of spacecraft equipped with specific instruments for various scientific and technological missions. These include communications satellites like Starlink; space stations such as the ISS; scientific satellites like the Hubble; Earth observation satellites from companies like Planet Labs, Umbra, and HawkEye 360; GPS; miniature CubeSats for education and research; and military/defense satellites.

Loading next visibility...
Identifier
46507, 2020-068X
Orbit
SSO
Country
Flag of DEDE / GER
Related business
Manufacturer
ZfT
Mission
Operational Commercial Technology
Bus & Motor
CUBESAT 3U, Unknown motor
Mass
4 kg wet, 4 kg dry
Launch date (UTC)
2020-09-28 (6 years ago)
Launch vehicle
SOYUZ-2-1B
Launch site
Plesetsk Missile And Space Complex (PKMTR)
Object type
Payload
Rocket body
Debris
Shape & HBR
Box, Unknown HBR
Radar Cross Section
0.035 m², Medium (>0.1 m² and < 1m²)

Expand to show TLE details & history
Last TLE update: 21 hours ago

TLE from 21 hours ago
0 NETSAT-2
1 46507U 20068X   26170.55970238  .00019174  00000-0  39346-3 0  9993
2 46507  97.8616 178.8939 0003149  19.0109 341.1256 15.46083868316105
Epoch: 2026-06-19T13:25Z
TLE epoch observation values (Epoch: 2026-06-19T13:25:58.285Z)
Latitude
-0.00002°
Longitude
69.61412°
Altitude
429.279 km
Speed
7.655 km/s
True Right ascension
11h 55m 34s
True Declination
0° 00' 00"
Sunlit
Object was in daylight at epoch
Visualization orbit readout
Latitude
Unknown
Longitude
Unknown
Altitude
Unknown
Speed
Unknown
Apparent Right ascension
Unknown
Apparent Declination
Unknown
Sunlit
N/A
Visualization observer readout
Local Sidereal Time
21:45:33
Azimuth
Unknown
Elevation
Unknown
Doppler factor
Unknown
Orbital elements
Apogee altitude
427.289 km
Perigee altitude
423.004 km
Semi-major axis
6,803.284 km
Eccentricity
0.00031
Inclination
97.8616°
RAAN
178.8939°
Arg. of periapsis
19.0109°
True anomaly
341.11392°
Mean anomaly
341.1256°
Eccentric anomaly
341.11976°
Mean motion
3.86781 °/min
Orbital period
93.08 mins
BSTAR
0.00039346
Loading maneuver chart data...
Computing Atmospheric mass density...
Loading historical data...
Loading historical data...
Loading historical data...
Loading historical data...
Loading historical data...
Loading historical data...
Loading historical data...

Documentation

Showing up to 5 results
|